Location: B?dimalle
(17.1788°N, 80.5377°E)
Time: 10:39:25
(UTC+00:00)

Tiros 1 despin weight - Pass Details

Date: 20 February 2026
Orbit: 556 x 593 km, 48.2° (Epoch: 10 March)

Event Time Altitude Azimuth Distance (km) Brightness Sun altitude
Rises 17:31:26 0° 291° (WNW) 2,739 - -69.5°
Reaches altitude 10° 17:34:32 10° 267° (W) 1,850 - -70.2°
Maximum altitude 17:36:53 15° 233° (SW) 1,578 - -70.8°
Drops below altitude 10° 17:39:16 10° 198° (SSW) 1,862 - -71.3°
Sets 17:42:25 0° 174° (S) 2,767 - -72.0°
